OpenBCM V1.08-5-g2f4a (Linux)

Packet Radio Mailbox

IZ3LSV

[San Dona' di P. JN]

 Login: GUEST





  
I0OJJ  > KEPS     08.09.25 02:50l 316 Lines 15000 Bytes #172 (0) @ AMSAT
BID : ORB25251.1
Read: GUEST
Subj: 2Line Orbital Elements 25251.AMSAT
Path: IZ3LSV<IK6IHL<IK7NXU<HB9ON<HB9ON<PI8ZTM<VK2IO<VK3AT<K5DAT<VE3CGR<
      VE3TOK<IR0AAB<I0OJJ
Sent: 250908/0025z @:I0OJJ.ITA.EU [Rome] obcm1.08-10-g596e
From: I0OJJ @ I0OJJ.ITA.EU (Gustavo)
To:   KEPS @ AMSAT
X-Info: This message was generated automatically


QST de W1STR

AMSAT Orbital Elements for Amateur Satellites in TLE Format
From Orbital Analysis Office
New England Sci-Tech STEM Education Center
Natick MA September 08, 2025
To all radio amateurs


These element sets describe the orbits of various satellites 
in use by the amateur radio community. For details see:
www.amsat.org/keplerian-elements-formats/

A daily update of element sets is available at:
www.amsat.org/tle/daily-bulletin.txt
or without bulletin text:
www.amsat.org/tle/dailytle.txt


AO-07
1 07530U 74089B   25250.26106579 -.00000023  00000-0  14427-3 0  9990
2 07530 101.9977 255.4904 0011994 312.5224 117.0250 12.53691420325068
UO-11
1 14781U 84021B   25250.21666583  .00001858  00000-0  19998-3 0  9998
2 14781  97.7636 214.8664 0008978  48.7849 311.4142 14.89643739214988
AO-27
1 22825U 93061C   25250.14795418  .00000175  00000-0  83983-4 0  9999
2 22825  98.7289 312.1167 0007948 203.6416 156.4402 14.30826229666529
FO-29
1 24278U 96046B   25250.21508691  .00000017  00000-0  50385-4 0  9997
2 24278  98.5603 132.2599 0350823 110.2770 253.6440 13.53253235434890
NOAA-15
1 25338U 98030A   25250.21078524  .00000228  00000-0  11111-3 0  9994
2 25338  98.5326 273.1726 0011477  96.4167 263.8321 14.27013413420936
GO-32
1 25397U 98043D   25250.18799164  .00000130  00000-0  76468-4 0  9998
2 25397  98.9801 231.2158 0000926   5.5660 354.5528 14.24336660411041
ISS
1 25544U 98067A   25250.13183880  .00010763  00000-0  19518-3 0  9990
2 25544  51.6324 260.9183 0004211 310.5120  49.5502 15.50160381527876
NO-44
1 26931U 01043C   25250.27012597  .00000222  00000-0  11417-3 0  9999
2 26931  67.0489 255.9363 0007009 275.5109  84.5193 14.31774261249949
SO-50
1 27607U 02058C   25250.24963845  .00001828  00000-0  24075-3 0  9992
2 27607  64.5527 283.6941 0065609 315.1035  44.4774 14.81860219222512
CO-55
1 27844U 03031E   25249.98431011  .00000550  00000-0  25832-3 0  9994
2 27844  98.6789 257.1160 0008487 291.0714  68.9557 14.24061937151360
CO-57
1 27848U 03031J   25249.48267668  .00000474  00000-0  22797-3 0  9990
2 27848  98.6816 256.5585 0008617 312.2371  47.8075 14.23386814151015
RS-22
1 27939U 03042A   25250.25590851  .00001782  00000-0  28830-3 0  9990
2 27939  98.3362  61.9278 0012593  86.2617  86.5154 14.72565027173892
CO-58
1 28895U 05043F   25249.95798268  .00002914  00000-0  47923-3 0  9994
2 28895  98.2618  35.5007 0014894  28.1662 332.0347 14.71314541 60086
CO-65
1 32785U 08021C   25250.24030119  .00006914  00000-0  48707-3 0  9999
2 32785  97.7942 222.1591 0007212 267.8283  92.2117 15.05325166942567
CO-66
1 32791U 08021J   25250.18867138  .00018145  00000-0  82310-3 0  9995
2 32791  97.7348 232.3906 0003245 173.0157 187.1123 15.20875151944101
RS-30
1 32953U 08025A   25250.29698683  .00000024  00000-0  10354-3 0  9994
2 32953  82.5072 171.3957 0018248 207.4092 152.6026 12.43167989784548
NOAA-19
1 33591U 09005A   25250.25017942  .00000182  00000-0  12069-3 0  9991
2 33591  98.9900 315.4278 0014803 109.6220 250.6551 14.13404551854519
SRMSAT
1 37841U 11058D   25249.46775713  .00000513  00000-0  13512-3 0  9994
2 37841  19.9733 336.6425 0011729 323.5680 128.2076 14.11461574717682
ZACUBE-1
1 39417U 13066B   25250.15368857  .00008668  00000-0  73414-3 0  9997
2 39417  97.7866 206.7708 0045448 112.0829 248.5228 14.97428081638313
Delfi-N3xt
1 39428U 13066N   25250.21601861  .00010380  00000-0  10246-2 0  9998
2 39428  97.8294 166.8985 0084920  65.6990 295.3067 14.89445382632414
GOMX-1
1 39430U 13066Q   25250.26666017  .00002482  00000-0  38929-3 0  9993
2 39430  97.6734 103.4048 0130238 265.3219  93.3103 14.67969899628386
LO-74
1 39440U 13066AA  25250.11467318  .00006302  00000-0  62793-3 0  9992
2 39440  97.8538 194.1118 0059611 243.7885 115.7197 14.90616309634773
AO-73
1 39444U 13066AE  25249.90008344  .00013941  00000-0  10051-2 0  9997
2 39444  97.7910 212.2543 0043372  85.5328 275.0850 15.03495398637008
DTUSAT-2
1 40030U 14033W   25249.88993171  .00013252  00000-0  83085-3 0  9996
2 40030  98.0627 226.1366 0010782 114.3308 245.9046 15.09426579609862
EO-80
1 40032U 14033Y   25250.17074483  .00009803  00000-0  61459-3 0  9996
2 40032  98.0511 225.9617 0010200  65.6972 294.5320 15.09517845609886
LILACSAT-2
1 40908U 15049K   25250.28743402  .00016035  00000-0  39068-3 0  9998
2 40908  97.5030 272.9080 0008761 184.4553 175.6617 15.40961545552035
IO-86
1 40931U 15052B   25151.18580175  .00001241  00000-0  78118-4 0  9996
2 40931   6.0006  24.0987 0012733 338.8432  21.1169 14.78805930523159
Horyu-4
1 41340U 16012D   25250.25594590  .00035233  00000-0  82184-3 0  9997
2 41340  30.9948 247.2463 0006653 266.7537  93.2349 15.40972623526610
Lapan A3
1 41603U 16040E   25250.28965105  .00004521  00000-0  15579-3 0  9997
2 41603  97.1408 251.4263 0009240 316.8019  43.2497 15.30465916511502
CAS-2T
1 41847U 16066G   25250.23185869  .00001279  00000-0  19195-3 0  9996
2 41847  98.4139 323.8987 0344149 267.2246  88.9516 14.43697433463952
CAS-4B
1 42759U 17034B   25250.17176470  .00237315  00000-0  11667-2 0  9993
2 42759  43.0014 142.5913 0022868 211.1844 148.7671 15.80351323456687
CAS-4A
1 42761U 17034D   25250.09959579  .00289118  00000-0  12159-2 0  9991
2 42761  43.0046 138.7354 0023641 216.5102 143.4160 15.83516232456700
TechnoSat
1 42829U 17042E   25250.18330499  .00004544  00000-0  34733-3 0  9990
2 42829  97.4008  54.6692 0016942 346.9207  13.1576 15.02301340444172
AO-91
1 43017U 17073E   25250.19320461  .00011916  00000-0  59411-3 0  9994
2 43017  97.5098 118.7179 0167553 220.6390 138.2236 15.06166859422693
S-Net D
1 43186U 18014G   25250.22634583  .00007280  00000-0  41949-3 0  9990
2 43186  97.5515 152.2154 0007046 278.5915  81.4517 15.12677625415929
S-Net B
1 43187U 18014H   25250.23292704  .00006808  00000-0  39274-3 0  9990
2 43187  97.5522 152.1979 0007647 272.5608  87.4747 15.12656923415921
S-Net A
1 43188U 18014J   25250.22641185  .00007287  00000-0  41977-3 0  9996
2 43188  97.5528 152.3538 0007599 273.0350  87.0011 15.12683201415926
S-Net C
1 43189U 18014K   25250.23554329  .00006597  00000-0  38065-3 0  9998
2 43189  97.5547 152.3922 0009027 264.2208  95.7993 15.12653294414470
Ten-Koh
1 43677U 18084G   25250.27286040  .00003333  00000-0  26623-3 0  9995
2 43677  98.0817  66.0842 0005990 331.7437  28.3460 15.00981109373694
PO-101
1 43678U 18084H   25250.26652376  .00002968  00000-0  25180-3 0  9994
2 43678  98.1100  69.8646 0008668   2.2132 357.9127 14.98733782373814
QO-100
1 43700U 18090A   25250.16822023  .00000141  00000-0  00000-0 0  9996
2 43700   0.0016 138.9120 0001320  55.4668 238.4996  1.00269702 24832
MinXSS-2
1 43758U 18099A   25250.10943392  .00023339  00000-0  84081-3 0  9993
2 43758  97.4946 316.5568 0011217 193.7619 166.3316 15.28507682370639
AO-95
1 43770U 18099N   25250.10365920  .00016804  00000-0  80892-3 0  9997
2 43770  97.4836 307.2474 0008924 257.1855 102.8382 15.18803213370133
SNUSat 2
1 43782U 18099AA  25249.69600258  .00012346  00000-0  64730-3 0  9998
2 43782  97.4521 302.8520 0011538 198.1364 161.9459 15.15855178369991
SnugLite
1 43784U 18099AC  25250.11409384  .00016628  00000-0  79309-3 0  9991
2 43784  97.4330 303.0210 0003498 177.5121 182.6132 15.19153902370224
ITASat 1
1 43786U 18099AE  25250.13508837  .00008642  00000-0  47833-3 0  9992
2 43786  97.4488 302.5203 0012445 253.9196 106.0666 15.14017700370007
EAGLET 1
1 43790U 18099AJ  25250.11409597  .00006763  00000-0  42210-3 0  9994
2 43790  97.4682 302.1424 0010658 237.5991 122.4208 15.09773900369573
ESEO
1 43792U 18099AL  25250.16003141  .00001836  00000-0  14097-3 0  9994
2 43792  97.4375 294.2319 0011328 213.4113 146.6399 15.02915362369271
JO-97
1 43803U 18099AX  25250.14612107  .00016270  00000-0  69717-3 0  9990
2 43803  97.4584 308.4943 0007476 180.2085 179.9150 15.22820439370396
Suomi 100
1 43804U 18099AY  25250.11562675  .00016894  00000-0  78423-3 0  9998
2 43804  97.4647 307.4862 0011999 189.1031 170.9988 15.20031475370291
ISAT
1 43879U 18111D   25250.20638483  .00030808  00000-0  95112-3 0  9991
2 43879  97.5878 166.7493 0005890 222.3476 137.7312 15.33486647367413
UWE-4
1 43880U 18111E   25249.72358881  .00026587  00000-0  95614-3 0  9995
2 43880  97.5825 164.0593 0008798 251.2840 108.7445 15.28562031367236
Sparrow
1 43881U 18111F   25250.24076708  .00032965  00000-0  97068-3 0  9992
2 43881  97.6048 170.0332 0003170 278.9858  81.1026 15.34983588367529
Prox-1
1 44339U 19036A   25250.24544688  .00014833  00000-0  18027-2 0  9996
2 44339  23.9958 192.0760 0006566  14.5247 345.5439 14.81762280331326
Taurus 1
1 44530U 19059C   25250.32430326  .00008725  00000-0  15665-2 0  9994
2 44530  98.6160  34.0842 0009834 117.2211 242.9995 14.66922618317093
Duchifat 3
1 44854U 19089C   25250.07661257  .00114090  00000-0  15833-2 0  9997
2 44854  36.9386 142.8744 0008434 299.8224  60.1697 15.55713438316918
TO-108
1 44881U 19093C   25250.33826781  .00001340  00000-0  16015-3 0  9993
2 44881  97.7863 324.0926 0012465 299.9227  60.0750 14.85774427309404
FloripaSat 1
1 44885U 19093G   25250.27031972  .00008434  00000-0  69261-3 0  9992
2 44885  97.8175 338.0944 0007658 265.7580  94.2767 14.99420633310187
RS-44
1 44909U 19096E   25250.22779976  .00000030  00000-0  66135-4 0  9992
2 44909  82.5254 167.7308 0218543  85.9429 276.6619 12.79743156266158
UPMSat 2
1 46276U 20061E   25250.16515833  .00222805  00000-0  84781-3 0  9990
2 46276  97.2324 328.4570 0002988 224.0296 136.0738 15.87005208279579
